Regional Weather Roundup
Issued by NWS

Home | Current Version | Previous Version | Text Only | Print | Product List | Glossary Off
Versions: 1 2 3 4 5 6 7 8 9 10 11 12 13 14 15 16 17 18 19 20 21 22 23 24 25 26 27 28 29 30 31 32 33 34 35 36 37 38 39 40 41 42 43 44 45 46 47 48 49 50

154
ASUS45 KBOU 240010
RWRCO

WEATHER ROUNDUP FOR COLORADO
NATIONAL WEATHER SERVICE PUEBLO CO
500 PM MST FRI FEB 23 2018

NOTE: "FAIR" INDICATES FEW OR NO CLOUDS BELOW 12000 FEET WITH NO
SIGNIFICANT WEATHER AND/OR OBSTRUCTIONS TO VISIBILITY.

COZ001>005-013-030-031-240100-
...NORTHWEST COLORADO...

CITY           SKY/WX    TMP DP  RH WIND       PRES   REMARKS
CRAIG          CLOUDY    30  10  43 S15       29.84S WCI  19
HAYDEN         CLOUDY    27  15  61 SW13      29.84R WCI  16
MEEKER         CLOUDY    29  13  51 SW12      29.85R WCI  19
RABBIT EARS PA NOT AVBL
STEAMBOAT SPGS CLOUDY    28  14  56 W8        29.83S WCI  19
WALDEN         CLOUDY    21  10  63 W8        29.82S WCI  12
$$

COZ006>008-011-240100-
...WEST CENTRAL VALLEYS...

CITY           SKY/WX    TMP DP  RH WIND       PRES   REMARKS
GRAND JUNCTION CLOUDY    35  22  58 NW5       29.91R WCI  31
MONTROSE       LGT SNOW  28  21  75 NW5       29.95R WCI  23
EAGLE          CLOUDY    31  18  58 W13       29.85R WCI  21
RIFLE          CLOUDY    29  22  75 VRB3      29.91R
DELTA          NOT AVBL
NUCLA          CLOUDY    27  25  93 SE12      29.95F WCI  16
$$

COZ017>023-064>068-240100-
...SOUTHWEST COLORADO...

CITY           SKY/WX    TMP DP  RH WIND       PRES   REMARKS
DURANGO        CLOUDY    32  22  66 E8        29.87F WCI  25
CORTEZ         CLOUDY    28  23  81 NW8       29.94R WCI  20
PAGOSA SPRINGS FAIR      32  12  44 W7        29.87F WCI  25
TELLURIDE      CLOUDY    21  13  70 S6        29.84S WCI  14
WOLF CREEK PAS CLOUDY    10   9  92 SW23G33   29.82S WCI -10
$$

COZ009-010-012-014-032>034-037-058>063-240100-
...CENTRAL COLORADO...

CITY           SKY/WX    TMP DP  RH WIND       PRES   REMARKS
ASPEN          MOCLDY    27  13  55 N6        29.80R WCI  20
BUENA VISTA    MOCLDY    32  -4  20 S9        29.79S WCI  25
COPPER MTN     CLOUDY    16   5  62 S3        29.75S
BERTHOUD PASS  LGT SNOW   5  -4  66 SW5       29.75F VSB 3/4 WCI  -4
COTTONWOOD PAS MOCLDY    30  -4  22 SW21G31   29.79R WCI  17
GUNNISON       MOCLDY    30  11  45 SW10      29.81R WCI  21
KREMMLING      MOCLDY    34  12  40 SW6       29.82R WCI  29
LEADVILLE      CLOUDY    19   2  47 SW10      29.75R WCI   7
MONARCH PASS   LGT SNOW  12   1  62 SW48G60   29.84S WCI -13
SALIDA         FAIR      38   0  20 SW10G22   29.89R
SUNLIGHT       HVY SNOW   9   7  92 W7G17     29.82R VSB<1/4 WCI  -3
WILKERSON PASS PTCLDY    19   3  49 SW15G32   29.79S WCI   5
$$

COZ069>075-240100-
...SAN LUIS VALLEY/SANGRE DE CRISTO MOUNTAINS...

CITY           SKY/WX    TMP DP  RH WIND       PRES   REMARKS
ALAMOSA        CLEAR     36   8  31 SW21      29.83F
DEL NORTE      FAIR      31   9  39 W15G21    29.84S WCI  21
LA VETA PASS   CLOUDY    27   7  43 S17G33    29.95S WCI  14
SAGUACHE       CLEAR     32   5  32 SW12      29.86S WCI  23
$$

COZ035-036-038>040-240100-
...NORTHERN COLORADO FRONT RANGE...

CITY           SKY/WX    TMP DP  RH WIND       PRES   REMARKS
DENVER INTL AP CLOUDY    25  20  81 NW15G23   29.89R HAZE    WCI  13
DMNS CITY PARK NOT AVBL
AURORA         CLOUDY    25  22  90 NW13      29.89S FOG     WCI  13
FRONT RANGE AP MOCLDY    28  25  86 NW20      29.89R FOG     WCI  15
ERIE MUNI ARPT CLOUDY    26  21  81 NW10      29.98S HAZE    WCI  16
BOULDER MUN AP LGT SNOW  27  23  86 NW5       29.92F WCI  21
CENTENNIAL     CLOUDY    25  21  85 N14       29.88R FOG     WCI  13
BROOMFIELD     CLOUDY    25  19  80 NW16      29.90F HAZE    WCI  12
LOVELAND       LGT SNOW  25  22  88 NW12      29.94F VSB 3/4 WCI  14
LONGMONT       LGT SNOW  28  23  80 N9        29.95F WCI  19
$$

COZ041-046-047-076>085-087-088-240100-
...PIKES PEAK/PALMER DIVIDE AND SOUTHERN FOOTHILLS...

CITY           SKY/WX    TMP DP  RH WIND       PRES   REMARKS
COLO. SPRINGS  PTCLDY    34  14  43 S15       29.87S WCI  24
A. F. ACADEMY  CLEAR     33  11  40 SE14      29.84S WCI  23
SCHRIEVER AFB  NOT AVBL
CHEYENNE MTN   NOT AVBL
ELLICOTT         N/A    N/A N/A N/A SE14      29.86S
FALCON         FAIR      32   8  36 S10       29.87R WCI  24
FORT CARSON    CLEAR     35  14  41 S14       29.87R WCI  26
LIMON          CLEAR     28  21  75 SE21      29.90S WCI  15
MONUMENT HILL  MOCLDY    28  19  69 MISG      29.86R
CANON CITY     CLEAR     37  16  41 E10G16    29.87S
WALSENBURG     FAIR      34  19  55 E10       29.85R WCI  26
TRINIDAD       CLEAR     36  21  54 NE12      29.85S
$$

COZ042>045-048>051-090-091-240100-
...NORTHEAST COLORADO...

CITY           SKY/WX    TMP DP  RH WIND       PRES   REMARKS
GREELEY ARPT   CLOUDY    28  23  81 NW13      29.94F WCI  17
AKRON          CLEAR     31  22  69 E20G29    29.95S WCI  19
BURLINGTON     MOCLDY    29  24  82 SE15      29.99F WCI  18
WRAY           CLOUDY    32  23  69 E12G18    30.03S WCI  23
YUMA           NOT AVBL
STERLING       FAIR      34  19  55 SE12      29.98S WCI  25
HOLYOKE        FAIR      34  23  64 E14       30.05S WCI  24
FORT MORGAN    FAIR      35  19  51 E16       29.94S WCI  25
$$

COZ086-089-092>099-240100-
...SOUTHEAST COLORADO...

CITY           SKY/WX    TMP DP  RH WIND       PRES   REMARKS
PUEBLO         MOCLDY    31  22  69 SE10      29.92R WCI  22
LA JUNTA       PTCLDY    31  23  72 E18       29.93S WCI  19
LAMAR          CLOUDY    30  23  75 SE9       29.97F WCI  22
SPRINGFIELD      N/A     28  27  96 E17       29.92F WCI  16
$$





USA.gov is the U.S. government's official web portal to all federal, state and local government web resources and services.